Simultaneous Nadir Overpasses (SNOs) Predictions

Prediction of SNOs between AQUA and GOES-15 Satellite Orbit:

Table of predicted SNOs for the next 14.0 days since TLE Epoch: 10/3/2025
Index Date Time (AQUA) AQUA Lat,Lon GOES-15 Lat,Lon Distance(km) Time Diff (sec)
1 10/03/2025 22:57:31 0.12, 59.50 -0.30, 61.35 211.29 80
2 10/05/2025 22:36:45 -1.03, 64.58 -0.34, 61.36 366.25 80
3 10/06/2025 10:55:54 0.00, 59.95 0.28, 61.39 162.32 80
4 10/08/2025 10:35:04 1.08, 65.06 0.31, 61.40 416.25 80
5 10/08/2025 22:54:05 -0.09, 60.47 -0.26, 61.37 102.39 80
6 10/10/2025 22:33:14 -1.20, 65.57 -0.29, 61.40 474.88 80
7 10/11/2025 10:52:22 0.12, 60.97 0.23, 61.44 54.57 80
8 10/13/2025 22:50:29 -0.21, 61.49 -0.22, 61.44 6.17 32
9 10/16/2025 10:48:43 0.32, 61.99 0.20, 61.52 53.94 80
10 10/16/2025 23:07:41 0.72, 57.42 -0.14, 61.48 461.76 80
